Location: Banios
(43.0451°N, 0.2335°E)
Time: 08:48:04
(UTC+00:00)

A-11 Canister half - Pass Details

Date: 04 December 2021
Orbit: 1516 x 1684 km, 47.2° (Epoch: 22 January)

Event Time Altitude Azimuth Distance (km) Brightness Sun altitude
Rises 05:08:26 0° 198° (SSW) 4,709 11.5 -22.2°
Reaches altitude 10° 05:11:56 10° 188° (S) 3,752 11.1 -21.6°
Maximum altitude 05:19:51 31° 131° (SE) 2,549 10.7 -20.2°
Drops below altitude 10° 05:27:59 10° 75° (ENE) 3,878 12.0 -18.7°
Sets 05:31:38 0° 65° (ENE) 4,890 12.5 -18.1°
